Lander, WY

1:40 AM MDT on May 25, 2018 (GMT -0600)
Hunt

Weather History for KLND - December, 2011

Change the Weather History Date:

Wednesday, December 14, 2011

  Actual Average Record
Temperature  
Mean Temperature 21 °F 20 °F  
Max Temperature 32 °F 31 °F 61 °F (1924)
Min Temperature 10 °F 9 °F -26 °F (1926)
Degree Days  
Heating Degree Days 44 45  
Month to date heating degree days 728 612  
Since 1 July heating degree days 2303 2485  
Cooling Degree Days 0 0  
Month to date cooling degree days 0 0  
Year to date cooling degree days 576 472  
Moisture  
Dew Point 13 °F    
Average Humidity 72    
Maximum Humidity 84    
Minimum Humidity 60    
Precipitation  
Precipitation 0.00 in 0.02 in 0.74 in (2014)
Month to date precipitation 0.28 0.30  
Year to date precipitation 14.73 12.38  
Snow  
Snow 0.00 in 0.30 in - ()
Month to date snowfall 6.6 5.2  
Since 1 July snowfall 20.5 30.8  
Snow Depth 4.00 in    
Sea Level Pressure  
Sea Level Pressure 30.08 in    
Wind  
Wind Speed 2 mph (West)    
Max Wind Speed 8 mph    
Max Gust Speed -    
Visibility 10 miles    
Events      
T = Trace of Precipitation, MM = Missing Value Source: NWS Daily Summary

Daily Weather History Graph

Daily Weather History Graph

Search for Another Location

Airport or City:

Astronomy

Dec. 14, 2011 Rise Set
Actual Time 7:37 AM MST 4:41 PM MST
Civil Twilight 7:05 AM MST 5:13 PM MST
Nautical Twilight 6:29 AM MST 5:49 PM MST
Astronomical Twilight 5:55 AM MST 6:23 PM MST
Moon 9:09 PM MST (12/14) 10:20 AM MST (12/14)
Length of Visible Light 10h 07m
Length of Day
9h 03m
Waning Gibbous, 83% of the Moon is Illuminated
Dec 14
Waning Gibbous
Dec 17
Last Quarter
Dec 24
New
Dec 31
First Quarter
Jan 9
Full

Hourly Weather History & Observations

Time (MST) Temp. Windchill Dew Point Humidity Pressure Visibility Wind Dir Wind Speed Gust Speed Precip Events Conditions
12:53 AM 12.9 °F - 8.1 °F 81% 29.95 in 10.0 mi Calm Calm - N/A   Clear
1:53 AM 12.9 °F - 9.0 °F 84% 29.94 in 10.0 mi Calm Calm - N/A   Clear
2:53 AM 18.0 °F 7.7 °F 10.9 °F 74% 29.93 in 10.0 mi West 8.1 mph - N/A   Clear
3:53 AM 19.0 °F - 10.9 °F 71% 29.92 in 10.0 mi Calm Calm - N/A   Clear
4:53 AM 14.0 °F 3.9 °F 8.1 °F 77% 29.95 in 10.0 mi SW 6.9 mph - N/A   Clear
5:53 AM 14.0 °F 6.5 °F 8.1 °F 77% 29.97 in 10.0 mi SSW 4.6 mph - N/A   Clear
6:53 AM 16.0 °F - 9.0 °F 74% 29.97 in 10.0 mi Calm Calm - N/A   Partly Cloudy
7:53 AM 17.1 °F - 10.9 °F 77% 30.00 in 10.0 mi Calm Calm - N/A   Mostly Cloudy
8:53 AM 25.0 °F 19.3 °F 12.0 °F 58% 30.01 in 10.0 mi WSW 4.6 mph - N/A   Overcast
9:53 AM 24.1 °F - 15.1 °F 69% 30.04 in 10.0 mi Calm Calm - N/A   Overcast
10:53 AM 27.0 °F - 17.1 °F 66% 30.06 in 10.0 mi Calm Calm - N/A   Mostly Cloudy
11:53 AM 30.9 °F 27.5 °F 19.0 °F 61% 30.04 in 10.0 mi West 3.5 mph - N/A   Mostly Cloudy
12:53 PM 28.0 °F 22.8 °F 19.0 °F 69% 30.08 in 9.0 mi East 4.6 mph - N/A   Overcast
1:53 PM 26.1 °F - 19.0 °F 75% 30.09 in 9.0 mi Calm Calm - N/A   Mostly Cloudy
2:53 PM 26.1 °F 21.9 °F 18.0 °F 71% 30.09 in 9.0 mi East 3.5 mph - N/A   Clear
3:53 PM 27.0 °F - 18.0 °F 69% 30.12 in 9.0 mi Calm Calm - N/A   Clear
4:53 PM 24.1 °F 17.0 °F 17.1 °F 75% 30.19 in 7.0 mi NW 5.8 mph - N/A   Clear
5:53 PM 21.9 °F 13.4 °F 15.1 °F 75% 30.23 in 10.0 mi West 6.9 mph - N/A   Mostly Cloudy
6:53 PM 21.9 °F - 15.1 °F 75% 30.23 in 10.0 mi Calm Calm - N/A   Scattered Clouds
7:53 PM 21.0 °F - 12.0 °F 68% 30.25 in 10.0 mi Calm Calm - N/A   Clear
8:53 PM 19.0 °F - 14.0 °F 81% 30.22 in 10.0 mi Calm Calm - N/A   Clear
9:53 PM 21.9 °F - 12.9 °F 68% 30.20 in 10.0 mi Calm Calm - N/A   Clear
10:53 PM 15.1 °F 9.4 °F 9.0 °F 77% 30.22 in 10.0 mi NE 3.5 mph - N/A   Clear
11:53 PM 19.0 °F 11.1 °F 9.0 °F 65% 30.19 in 10.0 mi West 5.8 mph - N/A   Clear